Time,TemperatureF,DewpointF,PressureIn,WindDirection,WindDirectionDegrees,WindSpeedMPH,WindSpeedGustMPH,Humidity,HourlyPrecipIn,Conditions,Clouds,dailyrainin,SoftwareType,DateUTC
2014-01-13 00:01:00,32.8,23.0,29.94,SSE,158,2.0,2.0,67,0.00,,,0.00,WUHU216HW,2014-01-13 05:01:00,
2014-01-13 00:06:00,32.8,23.0,29.94,South,180,1.1,2.0,67,0.00,,,0.00,WUHU216HW,2014-01-13 05:06:00,
2014-01-13 00:11:00,32.8,23.0,29.94,SSW,203,1.1,1.1,67,0.00,,,0.00,WUHU216HW,2014-01-13 05:11:00,
2014-01-13 00:16:00,32.8,23.0,29.94,East,90,0.4,1.1,67,0.00,,,0.00,WUHU216HW,2014-01-13 05:16:00,
2014-01-13 00:21:00,32.8,23.0,29.94,SSW,203,0.8,1.3,67,0.00,,,0.00,WUHU216HW,2014-01-13 05:21:00,
2014-01-13 00:26:00,32.8,23.0,29.94,SW,225,1.6,1.6,67,0.00,,,0.00,WUHU216HW,2014-01-13 05:26:00,
2014-01-13 00:31:00,32.8,23.0,29.94,North,0,1.0,1.8,67,0.00,,,0.00,WUHU216HW,2014-01-13 05:31:00,
2014-01-13 00:36:00,32.8,23.0,29.94,SSW,203,0.4,1.8,67,0.00,,,0.00,WUHU216HW,2014-01-13 05:36:00,
2014-01-13 00:41:00,32.8,23.0,29.94,SSW,203,0.9,0.9,67,0.00,,,0.00,WUHU216HW,2014-01-13 05:41:00,
2014-01-13 00:46:00,32.8,23.0,29.94,South,180,0.7,1.1,67,0.00,,,0.00,WUHU216HW,2014-01-13 05:46:00,
2014-01-13 00:51:00,32.8,23.0,29.94,ENE,68,0.7,1.1,67,0.00,,,0.00,WUHU216HW,2014-01-13 05:51:00,
2014-01-13 00:56:00,32.8,23.0,29.94,SSW,203,0.0,0.7,67,0.00,,,0.00,WUHU216HW,2014-01-13 05:56:00,
2014-01-13 01:01:00,32.8,23.0,29.95,NNE,23,0.4,1.8,67,0.00,,,0.00,WUHU216HW,2014-01-13 06:01:00,
2014-01-13 01:06:00,32.8,23.0,29.95,South,180,0.2,1.8,67,0.00,,,0.00,WUHU216HW,2014-01-13 06:06:00,
2014-01-13 01:11:00,32.8,23.0,29.96,East,90,0.2,0.4,67,0.00,,,0.00,WUHU216HW,2014-01-13 06:11:00,
2014-01-13 01:16:00,32.8,23.0,29.96,SW,222,1.4,2.5,67,0.00,,,0.00,WUHU216HW,2014-01-13 06:16:00,
2014-01-13 01:21:00,32.8,23.0,29.96,SSE,158,1.1,2.5,67,0.00,,,0.00,WUHU216HW,2014-01-13 06:21:00,
2014-01-13 01:26:00,32.8,23.0,29.97,WSW,248,2.9,2.9,67,0.00,,,0.00,WUHU216HW,2014-01-13 06:26:00,
2014-01-13 01:31:00,32.8,23.0,29.97,SSW,203,1.1,2.9,67,0.00,,,0.00,WUHU216HW,2014-01-13 06:31:00,
2014-01-13 01:36:00,32.8,23.0,29.97,SSE,158,1.6,2.9,67,0.00,,,0.00,WUHU216HW,2014-01-13 06:36:00,
2014-01-13 01:41:00,32.8,23.0,29.98,NNE,23,0.7,2.9,67,0.00,,,0.00,WUHU216HW,2014-01-13 06:41:00,
2014-01-13 01:46:00,32.8,23.0,29.98,South,180,0.7,1.8,67,0.00,,,0.00,WUHU216HW,2014-01-13 06:46:00,
2014-01-13 01:51:00,32.6,22.8,29.98,South,180,4.0,4.0,67,0.00,,,0.00,WUHU216HW,2014-01-13 06:51:00,
2014-01-13 01:56:00,32.6,22.8,29.99,SSW,203,1.8,4.5,67,0.00,,,0.00,WUHU216HW,2014-01-13 06:56:00,
2014-01-13 02:01:00,32.4,22.7,29.99,SSW,203,1.1,4.5,67,0.00,,,0.00,WUHU216HW,2014-01-13 07:01:00,
2014-01-13 02:06:00,32.4,22.7,29.98,WNW,282,0.6,2.0,67,0.00,,,0.00,WUHU216HW,2014-01-13 07:06:00,
2014-01-13 02:11:00,32.4,22.7,29.98,WNW,293,0.2,1.3,67,0.00,,,0.00,WUHU216HW,2014-01-13 07:11:00,
2014-01-13 02:16:00,32.2,22.5,29.98,East,90,1.1,2.0,67,0.00,,,0.00,WUHU216HW,2014-01-13 07:16:00,
2014-01-13 02:21:00,32.2,22.5,29.99,WSW,248,0.2,2.9,67,0.00,,,0.00,WUHU216HW,2014-01-13 07:21:00,
2014-01-13 02:26:00,32.0,22.0,29.99,NNE,23,1.1,2.9,66,0.00,,,0.00,WUHU216HW,2014-01-13 07:26:00,
2014-01-13 02:31:00,32.0,22.0,29.99,East,84,1.0,1.8,66,0.00,,,0.00,WUHU216HW,2014-01-13 07:31:00,
2014-01-13 02:36:00,31.9,22.1,29.99,ENE,68,1.4,1.8,67,0.00,,,0.00,WUHU216HW,2014-01-13 07:36:00,
2014-01-13 02:41:00,31.7,22.0,29.99,ENE,68,0.7,1.8,67,0.00,,,0.00,WUHU216HW,2014-01-13 07:41:00,
2014-01-13 02:46:00,31.7,22.0,29.99,ENE,68,0.7,1.3,67,0.00,,,0.00,WUHU216HW,2014-01-13 07:46:00,
2014-01-13 02:51:00,31.5,21.8,29.99,ENE,68,0.0,0.7,67,0.00,,,0.00,WUHU216HW,2014-01-13 07:51:00,
2014-01-13 02:56:00,31.3,21.6,30.00,ENE,68,0.0,0.4,67,0.00,,,0.00,WUHU216HW,2014-01-13 07:56:00,
2014-01-13 03:01:00,31.3,21.6,30.00,East,90,0.6,0.7,67,0.00,,,0.00,WUHU216HW,2014-01-13 08:01:00,
2014-01-13 03:06:00,31.1,21.4,30.00,East,90,0.7,0.7,67,0.00,,,0.00,WUHU216HW,2014-01-13 08:06:00,
2014-01-13 03:11:00,31.1,21.4,30.00,East,90,0.0,0.7,67,0.00,,,0.00,WUHU216HW,2014-01-13 08:11:00,
2014-01-13 03:16:00,31.0,21.2,30.00,East,90,0.0,0.4,67,0.00,,,0.00,WUHU216HW,2014-01-13 08:16:00,
2014-01-13 03:21:00,31.0,21.2,30.00,SW,225,0.7,0.7,67,0.00,,,0.00,WUHU216HW,2014-01-13 08:21:00,
2014-01-13 03:26:00,30.8,21.1,30.00,WSW,248,0.7,1.1,67,0.00,,,0.00,WUHU216HW,2014-01-13 08:26:00,
2014-01-13 03:32:00,31.0,21.2,30.00,WSW,248,0.7,1.1,67,0.00,,,0.00,WUHU216HW,2014-01-13 08:32:00,
2014-01-13 03:37:00,30.8,21.1,30.00,WSW,248,0.0,1.1,67,0.00,,,0.00,WUHU216HW,2014-01-13 08:37:00,
2014-01-13 03:42:00,30.8,21.1,30.00,WSW,248,0.2,1.1,67,0.00,,,0.00,WUHU216HW,2014-01-13 08:42:00,
2014-01-13 03:47:00,30.8,21.1,30.00,WSW,248,0.2,0.7,67,0.00,,,0.00,WUHU216HW,2014-01-13 08:47:00,
2014-01-13 03:52:00,30.8,21.1,29.99,WSW,248,0.0,0.4,67,0.00,,,0.00,WUHU216HW,2014-01-13 08:52:00,
2014-01-13 03:57:00,30.6,20.9,30.00,WSW,248,0.0,0.0,67,0.00,,,0.00,WUHU216HW,2014-01-13 08:57:00,
2014-01-13 04:02:00,30.6,21.2,29.99,WSW,248,0.0,0.0,68,0.00,,,0.00,WUHU216HW,2014-01-13 09:02:00,
2014-01-13 04:07:00,30.4,21.1,30.00,WSW,248,0.0,0.0,68,0.00,,,0.00,WUHU216HW,2014-01-13 09:07:00,
2014-01-13 04:12:00,30.4,21.1,30.00,WSW,248,0.0,0.0,68,0.00,,,0.00,WUHU216HW,2014-01-13 09:12:00,
2014-01-13 04:17:00,30.2,20.9,30.00,WSW,248,0.9,0.9,68,0.00,,,0.00,WUHU216HW,2014-01-13 09:17:00,
2014-01-13 04:22:00,30.2,20.9,30.01,WSW,248,0.2,0.9,68,0.00,,,0.00,WUHU216HW,2014-01-13 09:22:00,
2014-01-13 04:27:00,30.1,20.7,30.01,WSW,248,0.0,0.9,68,0.00,,,0.00,WUHU216HW,2014-01-13 09:27:00,
2014-01-13 04:32:00,29.9,20.5,30.01,WSW,248,0.7,0.7,68,0.00,,,0.00,WUHU216HW,2014-01-13 09:32:00,
2014-01-13 04:37:00,29.9,20.5,30.01,WSW,248,0.0,0.7,68,0.00,,,0.00,WUHU216HW,2014-01-13 09:37:00,
2014-01-13 04:42:00,29.9,20.5,30.01,WSW,248,0.0,0.0,68,0.00,,,0.00,WUHU216HW,2014-01-13 09:42:00,
2014-01-13 04:47:00,29.9,20.5,30.01,WSW,248,0.0,0.0,68,0.00,,,0.00,WUHU216HW,2014-01-13 09:47:00,
2014-01-13 04:52:00,29.9,20.5,30.01,WSW,248,0.0,0.0,68,0.00,,,0.00,WUHU216HW,2014-01-13 09:52:00,
2014-01-13 04:57:00,29.9,20.5,30.01,WSW,248,0.0,0.0,68,0.00,,,0.00,WUHU216HW,2014-01-13 09:57:00,
2014-01-13 05:02:00,29.9,20.5,30.01,SW,225,0.4,1.3,68,0.00,,,0.00,WUHU216HW,2014-01-13 10:02:00,
2014-01-13 05:07:00,29.9,20.5,30.01,SW,225,0.0,1.3,68,0.00,,,0.00,WUHU216HW,2014-01-13 10:07:00,
2014-01-13 05:12:00,29.9,20.5,30.01,SW,225,0.0,0.2,68,0.00,,,0.00,WUHU216HW,2014-01-13 10:12:00,
2014-01-13 05:17:00,29.9,20.5,30.01,SW,225,0.2,0.7,68,0.00,,,0.00,WUHU216HW,2014-01-13 10:17:00,
2014-01-13 05:22:00,29.9,20.5,30.01,SSW,203,0.8,1.6,68,0.00,,,0.00,WUHU216HW,2014-01-13 10:22:00,
2014-01-13 05:27:00,29.9,20.5,30.02,SSW,203,1.5,1.8,68,0.00,,,0.00,WUHU216HW,2014-01-13 10:27:00,
2014-01-13 05:32:00,29.9,20.5,30.02,SSW,203,0.4,1.8,68,0.00,,,0.00,WUHU216HW,2014-01-13 10:32:00,
2014-01-13 05:37:00,29.9,20.5,30.01,SSW,203,1.1,1.6,68,0.00,,,0.00,WUHU216HW,2014-01-13 10:37:00,
2014-01-13 05:42:00,29.9,20.5,30.01,SE,141,0.6,1.1,68,0.00,,,0.00,WUHU216HW,2014-01-13 10:42:00,
2014-01-13 05:47:00,29.9,20.5,30.01,East,90,0.2,0.7,68,0.00,,,0.00,WUHU216HW,2014-01-13 10:47:00,
2014-01-13 05:52:00,29.7,20.4,30.01,East,90,0.0,0.7,68,0.00,,,0.00,WUHU216HW,2014-01-13 10:52:00,
2014-01-13 05:57:00,29.5,20.3,30.01,East,90,0.0,0.7,68,0.00,,,0.00,WUHU216HW,2014-01-13 10:57:00,
2014-01-13 06:02:00,29.3,20.4,30.01,East,90,0.2,0.7,69,0.00,,,0.00,WUHU216HW,2014-01-13 11:02:00,
2014-01-13 06:07:00,29.2,20.3,30.00,ESE,113,0.8,1.1,69,0.00,,,0.00,WUHU216HW,2014-01-13 11:07:00,
2014-01-13 06:12:00,29.2,20.3,30.00,WSW,248,0.7,1.1,69,0.00,,,0.00,WUHU216HW,2014-01-13 11:12:00,
2014-01-13 06:17:00,29.2,20.3,30.01,NNE,23,0.8,1.1,69,0.00,,,0.00,WUHU216HW,2014-01-13 11:17:00,
2014-01-13 06:22:00,29.0,20.1,30.01,NNE,23,0.4,1.1,69,0.00,,,0.00,WUHU216HW,2014-01-13 11:22:00,
2014-01-13 06:27:00,29.0,20.1,30.01,NNE,23,0.0,1.1,69,0.00,,,0.00,WUHU216HW,2014-01-13 11:27:00,
2014-01-13 06:32:00,29.2,20.3,30.01,NNE,23,0.7,1.1,69,0.00,,,0.00,WUHU216HW,2014-01-13 11:32:00,
2014-01-13 06:37:00,29.0,20.1,30.01,East,90,1.0,1.1,69,0.00,,,0.00,WUHU216HW,2014-01-13 11:37:00,
2014-01-13 06:42:00,29.0,20.1,30.02,East,97,0.6,1.1,69,0.00,,,0.00,WUHU216HW,2014-01-13 11:42:00,
2014-01-13 06:47:00,29.2,20.3,30.01,SSE,158,1.1,1.8,69,0.00,,,0.00,WUHU216HW,2014-01-13 11:47:00,
2014-01-13 06:52:00,29.5,20.6,30.01,SSE,158,1.2,1.8,69,0.00,,,0.00,WUHU216HW,2014-01-13 11:52:00,
2014-01-13 06:57:00,29.3,20.4,30.01,SSE,158,1.8,1.8,69,0.00,,,0.00,WUHU216HW,2014-01-13 11:57:00,
2014-01-13 07:02:00,29.0,20.1,30.01,South,180,0.9,1.8,69,0.00,,,0.00,WUHU216HW,2014-01-13 12:02:00,
2014-01-13 07:07:00,29.2,20.3,30.01,South,180,0.6,1.1,69,0.00,,,0.00,WUHU216HW,2014-01-13 12:07:00,
2014-01-13 07:12:00,29.3,20.4,30.02,South,180,0.0,0.9,69,0.00,,,0.00,WUHU216HW,2014-01-13 12:12:00,
2014-01-13 07:17:00,29.3,20.4,30.02,SSE,158,1.1,1.1,69,0.00,,,0.00,WUHU216HW,2014-01-13 12:17:00,
2014-01-13 07:22:00,29.2,20.3,30.01,SSE,158,0.4,1.1,69,0.00,,,0.00,WUHU216HW,2014-01-13 12:22:00,
2014-01-13 07:27:00,29.2,20.3,30.01,SSE,158,0.7,0.7,69,0.00,,,0.00,WUHU216HW,2014-01-13 12:27:00,
2014-01-13 07:32:00,29.2,20.3,30.02,South,180,0.9,0.9,69,0.00,,,0.00,WUHU216HW,2014-01-13 12:32:00,
2014-01-13 07:37:00,29.0,20.1,30.01,South,180,0.4,0.9,69,0.00,,,0.00,WUHU216HW,2014-01-13 12:37:00,
2014-01-13 07:42:00,29.0,20.1,30.01,South,180,0.0,0.4,69,0.00,,,0.00,WUHU216HW,2014-01-13 12:42:00,
2014-01-13 07:47:00,29.0,20.1,30.01,SW,225,0.7,0.7,69,0.00,,,0.00,WUHU216HW,2014-01-13 12:47:00,
2014-01-13 07:52:00,29.2,20.3,30.01,NW,315,0.4,0.9,69,0.00,,,0.00,WUHU216HW,2014-01-13 12:52:00,
2014-01-13 07:57:00,29.3,20.4,30.01,SSW,195,1.7,2.2,69,0.00,,,0.00,WUHU216HW,2014-01-13 12:57:00,
2014-01-13 08:02:00,29.3,20.4,30.01,SE,135,1.3,2.2,69,0.00,,,0.00,WUHU216HW,2014-01-13 13:02:00,
2014-01-13 08:07:00,29.3,20.4,30.01,SSW,212,0.6,2.0,69,0.00,,,0.00,WUHU216HW,2014-01-13 13:07:00,
2014-01-13 08:12:00,29.5,20.6,30.01,SSW,203,0.9,2.0,69,0.00,,,0.00,WUHU216HW,2014-01-13 13:12:00,
2014-01-13 08:17:00,29.7,20.8,30.01,South,180,2.5,2.9,69,0.00,,,0.00,WUHU216HW,2014-01-13 13:17:00,
2014-01-13 08:22:00,29.9,20.9,30.01,WSW,248,3.8,3.8,69,0.00,,,0.00,WUHU216HW,2014-01-13 13:22:00,
2014-01-13 08:27:00,30.1,21.1,30.01,SSW,203,2.5,3.8,69,0.00,,,0.00,WUHU216HW,2014-01-13 13:27:00,
2014-01-13 08:32:00,30.4,21.1,30.01,SSW,203,2.7,2.9,68,0.00,,,0.00,WUHU216HW,2014-01-13 13:32:00,
2014-01-13 08:37:00,30.6,21.2,30.01,SSW,203,4.0,4.0,68,0.00,,,0.00,WUHU216HW,2014-01-13 13:37:00,
2014-01-13 08:42:00,31.0,21.6,30.02,SSW,192,2.1,4.0,68,0.00,,,0.00,WUHU216HW,2014-01-13 13:42:00,
2014-01-13 08:47:00,31.1,21.8,30.02,SSE,158,1.8,3.4,68,0.00,,,0.00,WUHU216HW,2014-01-13 13:47:00,
2014-01-13 08:52:00,31.3,22.0,30.02,South,170,1.2,3.4,68,0.00,,,0.00,WUHU216HW,2014-01-13 13:52:00,
2014-01-13 08:57:00,31.5,22.1,30.02,SSW,203,1.1,2.0,68,0.00,,,0.00,WUHU216HW,2014-01-13 13:57:00,
2014-01-13 09:02:00,31.7,22.3,30.02,SSE,158,1.3,1.8,68,0.00,,,0.00,WUHU216HW,2014-01-13 14:02:00,
2014-01-13 09:07:00,31.9,22.1,30.02,SSE,158,1.3,1.8,67,0.00,,,0.00,WUHU216HW,2014-01-13 14:07:00,
2014-01-13 09:12:00,32.0,22.7,30.02,SSE,158,1.8,2.0,68,0.00,,,0.00,WUHU216HW,2014-01-13 14:12:00,
2014-01-13 09:17:00,32.2,22.9,30.03,SE,135,2.2,2.2,68,0.00,,,0.00,WUHU216HW,2014-01-13 14:17:00,
2014-01-13 09:22:00,32.2,22.9,30.03,SSE,158,1.6,2.2,68,0.00,,,0.00,WUHU216HW,2014-01-13 14:22:00,
2014-01-13 09:27:00,32.4,23.1,30.03,SSE,158,1.1,2.2,68,0.00,,,0.00,WUHU216HW,2014-01-13 14:27:00,
2014-01-13 09:32:00,32.8,23.0,30.03,SE,135,2.2,2.2,67,0.00,,,0.00,WUHU216HW,2014-01-13 14:32:00,
2014-01-13 09:37:00,33.1,23.3,30.03,SSE,158,2.5,2.5,67,0.00,,,0.00,WUHU216HW,2014-01-13 14:37:00,
2014-01-13 09:42:00,33.3,23.5,30.02,SSW,203,1.8,2.5,67,0.00,,,0.00,WUHU216HW,2014-01-13 14:42:00,
2014-01-13 09:47:00,33.5,23.6,30.03,SE,135,1.1,2.5,67,0.00,,,0.00,WUHU216HW,2014-01-13 14:47:00,
2014-01-13 09:52:00,34.0,24.1,30.03,SE,135,0.7,2.0,67,0.00,,,0.00,WUHU216HW,2014-01-13 14:52:00,
2014-01-13 09:57:00,34.4,24.5,30.03,SE,135,1.1,2.0,67,0.00,,,0.00,WUHU216HW,2014-01-13 14:57:00,
2014-01-13 10:02:00,34.7,24.5,30.03,SSW,203,1.5,2.5,66,0.00,,,0.00,WUHU216HW,2014-01-13 15:02:00,
2014-01-13 10:07:00,34.9,24.7,30.03,SSE,158,1.8,2.5,66,0.00,,,0.00,WUHU216HW,2014-01-13 15:07:00,
2014-01-13 10:12:00,34.9,24.3,30.02,SE,135,1.8,2.5,65,0.00,,,0.00,WUHU216HW,2014-01-13 15:12:00,
2014-01-13 10:17:00,35.1,24.5,30.02,ESE,113,1.8,2.5,65,0.00,,,0.00,WUHU216HW,2014-01-13 15:17:00,
2014-01-13 10:22:00,35.3,25.0,30.02,West,259,1.4,2.0,66,0.00,,,0.00,WUHU216HW,2014-01-13 15:22:00,
2014-01-13 10:27:00,35.3,25.0,30.03,ESE,113,1.8,2.0,66,0.00,,,0.00,WUHU216HW,2014-01-13 15:27:00,
2014-01-13 10:32:00,35.1,24.5,30.02,South,180,0.4,2.0,65,0.00,,,0.00,WUHU216HW,2014-01-13 15:32:00,
2014-01-13 10:37:00,35.3,25.0,30.02,SE,124,1.9,2.0,66,0.00,,,0.00,WUHU216HW,2014-01-13 15:37:00,
2014-01-13 10:42:00,35.5,25.2,30.01,ESE,105,1.3,2.0,66,0.00,,,0.00,WUHU216HW,2014-01-13 15:42:00,
2014-01-13 10:47:00,35.5,25.2,30.01,ESE,113,1.3,1.8,66,0.00,,,0.00,WUHU216HW,2014-01-13 15:47:00,
2014-01-13 10:52:00,34.9,24.7,30.01,East,90,1.0,1.3,66,0.00,,,0.00,WUHU216HW,2014-01-13 15:52:00,
2014-01-13 10:57:00,34.9,24.7,30.01,ESE,113,0.7,1.3,66,0.00,,,0.00,WUHU216HW,2014-01-13 15:57:00,
2014-01-13 11:01:00,35.1,24.8,30.00,ESE,113,1.1,1.1,66,0.00,,,0.00,WUHU216HW,2014-01-13 16:01:00,
2014-01-13 11:06:00,35.5,25.2,30.01,ESE,113,0.6,1.1,66,0.00,,,0.00,WUHU216HW,2014-01-13 16:06:00,
2014-01-13 11:11:00,36.2,25.6,30.00,SSE,158,0.6,1.1,65,0.00,,,0.00,WUHU216HW,2014-01-13 16:11:00,
2014-01-13 11:16:00,37.1,26.4,29.99,SE,135,0.0,1.8,65,0.00,,,0.00,WUHU216HW,2014-01-13 16:16:00,
2014-01-13 11:21:00,37.6,26.6,29.99,SE,135,0.9,1.8,64,0.00,,,0.00,WUHU216HW,2014-01-13 16:21:00,
2014-01-13 11:26:00,38.2,27.0,29.99,SE,135,0.4,1.8,64,0.00,,,0.00,WUHU216HW,2014-01-13 16:26:00,
2014-01-13 11:31:00,38.3,26.8,29.99,SE,126,0.9,1.8,63,0.00,,,0.00,WUHU216HW,2014-01-13 16:31:00,
2014-01-13 11:37:00,38.3,26.8,29.99,NNE,23,1.6,1.6,63,0.00,,,0.00,WUHU216HW,2014-01-13 16:37:00,
2014-01-13 11:41:00,37.8,26.6,29.99,NNE,23,2.0,2.5,64,0.00,,,0.00,WUHU216HW,2014-01-13 16:41:00,
2014-01-13 11:46:00,38.0,26.8,29.98,SE,135,1.6,2.5,64,0.00,,,0.00,WUHU216HW,2014-01-13 16:46:00,
2014-01-13 11:51:00,38.3,26.8,29.97,ENE,70,1.5,1.8,63,0.00,,,0.00,WUHU216HW,2014-01-13 16:51:00,
2014-01-13 11:56:00,38.5,26.9,29.97,NNE,23,0.4,1.8,63,0.00,,,0.00,WUHU216HW,2014-01-13 16:56:00,
2014-01-13 12:01:00,39.1,27.5,29.97,ESE,113,1.0,1.1,63,0.00,,,0.00,WUHU216HW,2014-01-13 17:01:00,
2014-01-13 12:06:00,39.6,28.0,29.97,ESE,113,0.7,1.3,63,0.00,,,0.00,WUHU216HW,2014-01-13 17:06:00,
2014-01-13 12:11:00,39.8,27.4,29.96,ESE,113,1.6,1.6,61,0.00,,,0.00,WUHU216HW,2014-01-13 17:11:00,
2014-01-13 12:16:00,39.8,27.0,29.96,SSE,158,1.1,1.6,60,0.00,,,0.00,WUHU216HW,2014-01-13 17:16:00,
2014-01-13 12:21:00,39.6,26.4,29.96,SSW,203,1.8,2.9,59,0.00,,,0.00,WUHU216HW,2014-01-13 17:21:00,
2014-01-13 12:26:00,39.6,26.4,29.96,SSE,158,0.9,2.9,59,0.00,,,0.00,WUHU216HW,2014-01-13 17:26:00,
2014-01-13 12:31:00,39.6,26.8,29.96,South,180,2.2,2.5,60,0.00,,,0.00,WUHU216HW,2014-01-13 17:31:00,
2014-01-13 12:36:00,39.4,26.2,29.96,South,170,2.0,2.2,59,0.00,,,0.00,WUHU216HW,2014-01-13 17:36:00,
2014-01-13 12:41:00,39.4,26.2,29.96,SSE,158,1.1,2.2,59,0.00,,,0.00,WUHU216HW,2014-01-13 17:41:00,
2014-01-13 12:46:00,39.4,25.4,29.95,SSE,158,1.8,2.2,57,0.00,,,0.00,WUHU216HW,2014-01-13 17:46:00,
2014-01-13 12:51:00,39.6,26.4,29.95,SSE,158,1.5,2.7,59,0.00,,,0.00,WUHU216HW,2014-01-13 17:51:00,
2014-01-13 12:56:00,39.8,26.1,29.95,South,180,1.8,2.7,58,0.00,,,0.00,WUHU216HW,2014-01-13 17:56:00,
2014-01-13 13:01:00,39.8,26.1,29.94,SSE,158,2.2,2.5,58,0.00,,,0.00,WUHU216HW,2014-01-13 18:01:00,
2014-01-13 13:06:00,39.6,25.9,29.94,SSE,159,2.7,2.9,58,0.00,,,0.00,WUHU216HW,2014-01-13 18:06:00,
2014-01-13 13:11:00,39.6,26.8,29.94,SSE,158,1.1,2.9,60,0.00,,,0.00,WUHU216HW,2014-01-13 18:11:00,
2014-01-13 13:16:00,39.2,26.5,29.94,SE,135,1.1,2.9,60,0.00,,,0.00,WUHU216HW,2014-01-13 18:16:00,
2014-01-13 13:21:00,39.2,26.5,29.94,SSE,158,1.8,1.8,60,0.00,,,0.00,WUHU216HW,2014-01-13 18:21:00,
2014-01-13 13:26:00,39.1,25.8,29.94,SSE,158,2.5,2.7,59,0.00,,,0.00,WUHU216HW,2014-01-13 18:26:00,
2014-01-13 13:31:00,39.1,25.8,29.94,SW,225,1.8,2.7,59,0.00,,,0.00,WUHU216HW,2014-01-13 18:31:00,
2014-01-13 13:36:00,39.2,26.5,29.94,South,191,1.0,2.7,60,0.00,,,0.00,WUHU216HW,2014-01-13 18:36:00,
2014-01-13 13:41:00,39.2,26.5,29.94,SE,135,1.3,2.7,60,0.00,,,0.00,WUHU216HW,2014-01-13 18:41:00,
2014-01-13 13:46:00,39.1,26.3,29.93,SSE,158,1.3,1.3,60,0.00,,,0.00,WUHU216HW,2014-01-13 18:46:00,
2014-01-13 13:51:00,39.2,26.5,29.92,SE,135,0.2,1.3,60,0.00,,,0.00,WUHU216HW,2014-01-13 18:51:00,
2014-01-13 13:56:00,39.2,26.8,29.92,SE,135,1.1,1.1,61,0.00,,,0.00,WUHU216HW,2014-01-13 18:56:00,
2014-01-13 14:01:00,39.4,26.6,29.92,SSE,158,1.8,1.8,60,0.00,,,0.00,WUHU216HW,2014-01-13 19:01:00,
2014-01-13 14:06:00,39.6,26.8,29.93,ESE,113,0.9,3.1,60,0.00,,,0.00,WUHU216HW,2014-01-13 19:06:00,
2014-01-13 14:11:00,39.8,26.1,29.92,SSE,158,2.5,3.1,58,0.00,,,0.00,WUHU216HW,2014-01-13 19:11:00,
2014-01-13 14:16:00,40.0,26.3,29.92,SSE,158,1.5,2.5,58,0.00,,,0.00,WUHU216HW,2014-01-13 19:16:00,
2014-01-13 14:21:00,40.0,26.3,29.92,SSE,158,1.3,2.5,58,0.00,,,0.00,WUHU216HW,2014-01-13 19:21:00,
2014-01-13 14:26:00,40.1,26.5,29.92,South,179,2.6,2.7,58,0.00,,,0.00,WUHU216HW,2014-01-13 19:26:00,
2014-01-13 14:31:00,40.5,26.4,29.92,SSW,203,2.7,2.9,57,0.00,,,0.00,WUHU216HW,2014-01-13 19:31:00,
2014-01-13 14:36:00,40.9,26.7,29.91,SSE,158,1.9,2.9,57,0.00,,,0.00,WUHU216HW,2014-01-13 19:36:00,
2014-01-13 14:41:00,41.0,26.9,29.91,SSW,203,2.2,2.7,57,0.00,,,0.00,WUHU216HW,2014-01-13 19:41:00,
2014-01-13 14:46:00,41.2,27.1,29.91,South,180,2.9,2.9,57,0.00,,,0.00,WUHU216HW,2014-01-13 19:46:00,
2014-01-13 14:51:00,40.9,26.3,29.91,South,180,1.8,2.9,56,0.00,,,0.00,WUHU216HW,2014-01-13 19:51:00,
2014-01-13 14:56:00,41.0,27.4,29.91,SSE,158,1.1,2.5,58,0.00,,,0.00,WUHU216HW,2014-01-13 19:56:00,
2014-01-13 15:01:00,41.0,26.9,29.90,SSW,211,0.7,2.5,57,0.00,,,0.00,WUHU216HW,2014-01-13 20:01:00,
2014-01-13 15:07:00,41.2,26.7,29.91,SSW,203,1.1,1.3,56,0.00,,,0.00,WUHU216HW,2014-01-13 20:07:00,
2014-01-13 15:12:00,41.2,27.1,29.91,SW,225,0.9,1.3,57,0.00,,,0.00,WUHU216HW,2014-01-13 20:12:00,
2014-01-13 15:17:00,41.2,26.7,29.91,SSW,203,1.6,1.6,56,0.00,,,0.00,WUHU216HW,2014-01-13 20:17:00,
2014-01-13 15:22:00,41.2,27.1,29.91,SSW,203,1.1,1.6,57,0.00,,,0.00,WUHU216HW,2014-01-13 20:22:00,
2014-01-13 15:26:00,41.4,27.7,29.91,SE,135,1.2,1.3,58,0.00,,,0.00,WUHU216HW,2014-01-13 20:26:00,
2014-01-13 15:31:00,41.2,28.0,29.91,SE,135,0.7,1.3,59,0.00,,,0.00,WUHU216HW,2014-01-13 20:31:00,
2014-01-13 15:36:00,41.2,28.0,29.91,SE,135,0.6,1.1,59,0.00,,,0.00,WUHU216HW,2014-01-13 20:36:00,
2014-01-13 15:41:00,41.0,27.4,29.92,SSE,158,0.9,1.1,58,0.00,,,0.00,WUHU216HW,2014-01-13 20:41:00,
2014-01-13 15:46:00,41.2,27.6,29.92,South,180,0.4,1.1,58,0.00,,,0.00,WUHU216HW,2014-01-13 20:46:00,
2014-01-13 15:51:00,41.2,27.6,29.92,SSW,203,0.9,1.8,58,0.00,,,0.00,WUHU216HW,2014-01-13 20:51:00,
2014-01-13 15:56:00,41.4,27.7,29.92,South,180,1.1,1.8,58,0.00,,,0.00,WUHU216HW,2014-01-13 20:56:00,
2014-01-13 16:02:00,41.2,28.0,29.93,SSW,203,1.4,1.6,59,0.00,,,0.00,WUHU216HW,2014-01-13 21:02:00,
2014-01-13 16:07:00,41.0,27.8,29.92,SSW,203,0.3,1.6,59,0.00,,,0.00,WUHU216HW,2014-01-13 21:07:00,
2014-01-13 16:10:00,40.9,27.6,29.93,South,180,0.4,1.1,59,0.00,,,0.00,WUHU216HW,2014-01-13 21:10:00,
2014-01-13 16:15:00,40.7,27.9,29.92,SSW,203,0.7,1.1,60,0.00,,,0.00,WUHU216HW,2014-01-13 21:15:00,
2014-01-13 16:20:00,40.7,27.9,29.93,SSE,158,1.8,1.8,60,0.00,,,0.00,WUHU216HW,2014-01-13 21:20:00,
2014-01-13 16:25:00,40.7,27.9,29.93,South,180,2.2,3.4,60,0.00,,,0.00,WUHU216HW,2014-01-13 21:25:00,
2014-01-13 16:30:00,40.9,28.4,29.94,SSW,203,3.4,3.4,61,0.00,,,0.00,WUHU216HW,2014-01-13 21:30:00,
2014-01-13 16:35:00,40.7,28.3,29.93,SSW,192,1.5,3.4,61,0.00,,,0.00,WUHU216HW,2014-01-13 21:35:00,
2014-01-13 16:40:00,40.7,28.3,29.92,SSE,158,0.6,2.5,61,0.00,,,0.00,WUHU216HW,2014-01-13 21:40:00,
2014-01-13 16:45:00,40.5,28.1,29.92,SSE,158,0.0,2.5,61,0.00,,,0.00,WUHU216HW,2014-01-13 21:45:00,
2014-01-13 16:50:00,40.0,27.9,29.92,SSE,158,0.0,0.4,62,0.00,,,0.00,WUHU216HW,2014-01-13 21:50:00,
2014-01-13 16:55:00,39.8,27.7,29.91,SSE,158,1.1,1.1,62,0.00,,,0.00,WUHU216HW,2014-01-13 21:55:00,
2014-01-13 17:00:00,39.6,27.5,29.91,SSE,158,0.0,1.1,62,0.00,,,0.00,WUHU216HW,2014-01-13 22:00:00,
2014-01-13 17:05:00,39.4,27.8,29.91,SE,135,1.3,1.3,63,0.00,,,0.00,WUHU216HW,2014-01-13 22:05:00,
2014-01-13 17:10:00,39.2,27.6,29.91,SE,135,0.4,1.3,63,0.00,,,0.00,WUHU216HW,2014-01-13 22:10:00,
2014-01-13 17:15:00,39.2,27.6,29.93,SSW,203,1.3,1.3,63,0.00,,,0.00,WUHU216HW,2014-01-13 22:15:00,
2014-01-13 17:20:00,39.1,27.5,29.92,South,180,2.5,2.5,63,0.00,,,0.00,WUHU216HW,2014-01-13 22:20:00,
2014-01-13 17:25:00,39.2,27.6,29.92,South,180,1.8,2.5,63,0.00,,,0.00,WUHU216HW,2014-01-13 22:25:00,
2014-01-13 17:29:00,39.4,27.8,29.92,SSE,158,2.5,2.5,63,0.00,,,0.00,WUHU216HW,2014-01-13 22:29:00,
2014-01-13 17:34:00,39.2,27.6,29.93,SSE,168,3.3,3.6,63,0.00,,,0.00,WUHU216HW,2014-01-13 22:34:00,
2014-01-13 17:39:00,39.2,27.6,29.92,SSE,158,1.3,3.6,63,0.00,,,0.00,WUHU216HW,2014-01-13 22:39:00,
2014-01-13 17:44:00,39.2,27.6,29.92,South,182,2.3,2.7,63,0.00,,,0.00,WUHU216HW,2014-01-13 22:44:00,
2014-01-13 17:49:00,39.2,28.0,29.92,SE,130,2.3,3.1,64,0.00,,,0.00,WUHU216HW,2014-01-13 22:49:00,
2014-01-13 17:54:00,39.2,27.6,29.92,SSE,158,2.9,3.1,63,0.00,,,0.00,WUHU216HW,2014-01-13 22:54:00,
2014-01-13 17:59:00,39.2,28.0,29.93,SSW,203,4.0,4.0,64,0.00,,,0.00,WUHU216HW,2014-01-13 22:59:00,
2014-01-13 18:04:00,39.2,28.0,29.93,SSE,158,2.9,4.0,64,0.00,,,0.00,WUHU216HW,2014-01-13 23:04:00,
2014-01-13 18:09:00,39.2,28.0,29.93,SSE,165,2.0,4.0,64,0.00,,,0.00,WUHU216HW,2014-01-13 23:09:00,
2014-01-13 18:14:00,39.1,27.8,29.93,South,180,4.0,4.0,64,0.00,,,0.00,WUHU216HW,2014-01-13 23:14:00,
2014-01-13 18:19:00,38.9,27.6,29.92,South,180,2.7,4.0,64,0.00,,,0.00,WUHU216HW,2014-01-13 23:19:00,
2014-01-13 18:24:00,38.7,27.5,29.92,SSW,203,2.3,3.4,64,0.00,,,0.00,WUHU216HW,2014-01-13 23:24:00,
2014-01-13 18:29:00,38.9,27.6,29.91,South,180,2.8,3.4,64,0.00,,,0.00,WUHU216HW,2014-01-13 23:29:00,
2014-01-13 18:34:00,38.9,27.6,29.92,South,180,1.7,3.4,64,0.00,,,0.00,WUHU216HW,2014-01-13 23:34:00,
2014-01-13 18:39:00,38.9,27.6,29.92,SSE,154,3.0,3.4,64,0.00,,,0.00,WUHU216HW,2014-01-13 23:39:00,
2014-01-13 18:44:00,38.7,27.9,29.91,South,182,2.9,3.4,65,0.00,,,0.00,WUHU216HW,2014-01-13 23:44:00,
2014-01-13 18:49:00,38.9,28.0,29.91,SSW,203,2.5,4.0,65,0.00,,,0.00,WUHU216HW,2014-01-13 23:49:00,
2014-01-13 18:54:00,38.9,28.0,29.91,SSW,203,2.5,4.0,65,0.00,,,0.00,WUHU216HW,2014-01-13 23:54:00,
2014-01-13 18:59:00,38.7,27.9,29.91,SSW,203,0.4,2.9,65,0.00,,,0.00,WUHU216HW,2014-01-13 23:59:00,
2014-01-13 19:04:00,38.7,27.9,29.91,SSE,158,0.8,2.9,65,0.00,,,0.00,WUHU216HW,2014-01-14 00:04:00,
2014-01-13 19:09:00,38.7,27.9,29.91,South,180,0.0,2.2,65,0.00,,,0.00,WUHU216HW,2014-01-14 00:09:00,
2014-01-13 19:14:00,38.2,27.4,29.90,North,0,1.8,1.8,65,0.00,,,0.00,WUHU216HW,2014-01-14 00:14:00,
2014-01-13 19:19:00,38.2,27.4,29.90,North,0,0.0,1.8,65,0.00,,,0.00,WUHU216HW,2014-01-14 00:19:00,
2014-01-13 19:24:00,37.8,27.5,29.89,North,0,0.8,1.8,66,0.00,,,0.00,WUHU216HW,2014-01-14 00:24:00,
2014-01-13 19:29:00,37.6,27.3,29.90,WNW,293,0.0,1.8,66,0.00,,,0.00,WUHU216HW,2014-01-14 00:29:00,
2014-01-13 19:34:00,37.6,27.3,29.89,South,180,0.6,0.9,66,0.00,,,0.00,WUHU216HW,2014-01-14 00:34:00,
2014-01-13 19:39:00,37.8,27.5,29.88,ENE,68,0.9,2.2,66,0.00,,,0.00,WUHU216HW,2014-01-14 00:39:00,
2014-01-13 19:44:00,37.6,27.3,29.88,SW,225,0.2,2.2,66,0.00,,,0.00,WUHU216HW,2014-01-14 00:44:00,
2014-01-13 19:49:00,37.4,27.1,29.88,SSE,158,1.6,1.6,66,0.00,,,0.00,WUHU216HW,2014-01-14 00:49:00,
2014-01-13 19:54:00,37.8,27.5,29.87,SE,135,1.3,1.6,66,0.00,,,0.00,WUHU216HW,2014-01-14 00:54:00,
2014-01-13 19:59:00,37.6,27.3,29.87,SE,135,0.0,1.6,66,0.00,,,0.00,WUHU216HW,2014-01-14 00:59:00,
2014-01-13 20:04:00,37.4,27.1,29.86,WNW,293,0.9,1.6,66,0.00,,,0.00,WUHU216HW,2014-01-14 01:04:00,
2014-01-13 20:09:00,37.3,26.9,29.87,West,270,0.2,1.6,66,0.00,,,0.00,WUHU216HW,2014-01-14 01:09:00,
2014-01-13 20:14:00,37.3,26.9,29.88,West,270,1.1,1.8,66,0.00,,,0.00,WUHU216HW,2014-01-14 01:14:00,
2014-01-13 20:19:00,37.4,27.1,29.88,South,180,1.8,1.8,66,0.00,,,0.00,WUHU216HW,2014-01-14 01:19:00,
2014-01-13 20:24:00,37.6,27.3,29.86,ESE,113,1.6,2.7,66,0.00,,,0.00,WUHU216HW,2014-01-14 01:24:00,
2014-01-13 20:29:00,37.8,27.5,29.86,ESE,113,2.5,2.7,66,0.00,,,0.00,WUHU216HW,2014-01-14 01:29:00,
2014-01-13 20:34:00,37.8,27.5,29.86,SE,135,1.1,2.5,66,0.00,,,0.00,WUHU216HW,2014-01-14 01:34:00,
2014-01-13 20:39:00,37.8,27.5,29.86,SSW,203,1.4,2.2,66,0.00,,,0.00,WUHU216HW,2014-01-14 01:39:00,
2014-01-13 20:45:00,38.0,27.6,29.86,SSE,158,1.1,1.8,66,0.00,,,0.00,WUHU216HW,2014-01-14 01:45:00,
2014-01-13 20:50:00,38.0,27.6,29.88,SSE,158,3.3,4.0,66,0.00,,,0.00,WUHU216HW,2014-01-14 01:50:00,
2014-01-13 20:55:00,38.3,27.9,29.87,SSW,203,2.9,4.0,66,0.00,,,0.00,WUHU216HW,2014-01-14 01:55:00,
2014-01-13 21:00:00,38.5,28.1,29.88,SSE,158,2.9,3.4,66,0.00,,,0.00,WUHU216HW,2014-01-14 02:00:00,
2014-01-13 21:05:00,38.5,28.1,29.87,SSW,192,1.9,2.9,66,0.00,,,0.00,WUHU216HW,2014-01-14 02:05:00,
2014-01-13 21:10:00,38.5,28.1,29.87,SSE,158,1.8,2.5,66,0.00,,,0.00,WUHU216HW,2014-01-14 02:10:00,
2014-01-13 21:15:00,38.3,27.9,29.86,South,180,1.8,2.5,66,0.00,,,0.00,WUHU216HW,2014-01-14 02:15:00,
2014-01-13 21:20:00,38.3,27.9,29.85,SSE,163,1.0,2.5,66,0.00,,,0.00,WUHU216HW,2014-01-14 02:20:00,
2014-01-13 21:25:00,38.3,27.9,29.85,SSW,205,1.0,1.8,66,0.00,,,0.00,WUHU216HW,2014-01-14 02:25:00,
2014-01-13 21:30:00,38.2,27.7,29.85,SSW,213,0.6,2.0,66,0.00,,,0.00,WUHU216HW,2014-01-14 02:30:00,
2014-01-13 21:35:00,38.2,27.7,29.85,SE,127,0.3,2.0,66,0.00,,,0.00,WUHU216HW,2014-01-14 02:35:00,
2014-01-13 21:40:00,38.2,27.7,29.85,SSW,203,1.8,1.8,66,0.00,,,0.00,WUHU216HW,2014-01-14 02:40:00,
2014-01-13 21:45:00,38.5,28.1,29.85,South,185,0.9,2.5,66,0.00,,,0.00,WUHU216HW,2014-01-14 02:45:00,
2014-01-13 21:50:00,38.3,27.9,29.85,WSW,248,0.9,2.5,66,0.00,,,0.00,WUHU216HW,2014-01-14 02:50:00,
2014-01-13 21:55:00,38.5,28.1,29.86,SW,225,2.7,2.7,66,0.00,,,0.00,WUHU216HW,2014-01-14 02:55:00,
2014-01-13 22:00:00,38.5,28.1,29.85,SW,225,0.0,2.7,66,0.00,,,0.00,WUHU216HW,2014-01-14 03:00:00,
2014-01-13 22:05:00,38.3,27.9,29.85,SW,225,0.2,1.3,66,0.00,,,0.00,WUHU216HW,2014-01-14 03:05:00,
2014-01-13 22:10:00,38.2,27.7,29.86,SW,225,0.0,0.4,66,0.00,,,0.00,WUHU216HW,2014-01-14 03:10:00,
2014-01-13 22:15:00,38.2,27.7,29.85,NNW,338,1.1,1.1,66,0.00,,,0.00,WUHU216HW,2014-01-14 03:15:00,
2014-01-13 22:20:00,38.0,27.6,29.84,North,0,1.1,1.3,66,0.00,,,0.00,WUHU216HW,2014-01-14 03:20:00,
2014-01-13 22:25:00,37.8,27.8,29.84,North,0,0.0,1.6,67,0.00,,,0.00,WUHU216HW,2014-01-14 03:25:00,
2014-01-13 22:30:00,37.8,27.8,29.84,North,0,0.0,1.6,67,0.00,,,0.00,WUHU216HW,2014-01-14 03:30:00,
2014-01-13 22:35:00,37.6,27.3,29.84,NE,45,1.6,1.6,66,0.00,,,0.00,WUHU216HW,2014-01-14 03:35:00,
2014-01-13 22:40:00,37.6,27.6,29.85,WSW,248,1.8,1.8,67,0.00,,,0.00,WUHU216HW,2014-01-14 03:40:00,
2014-01-13 22:45:00,37.6,27.6,29.84,WSW,248,0.0,1.8,67,0.00,,,0.00,WUHU216HW,2014-01-14 03:45:00,
2014-01-13 22:50:00,37.4,27.5,29.84,North,0,0.9,0.9,67,0.00,,,0.00,WUHU216HW,2014-01-14 03:50:00,
2014-01-13 22:55:00,37.1,27.2,29.84,North,0,1.6,2.5,67,0.00,,,0.00,WUHU216HW,2014-01-14 03:55:00,
2014-01-13 23:00:00,36.9,27.0,29.84,North,0,0.9,2.5,67,0.00,,,0.00,WUHU216HW,2014-01-14 04:00:00,
2014-01-13 23:05:00,36.9,27.0,29.83,West,270,0.0,1.1,67,0.00,,,0.00,WUHU216HW,2014-01-14 04:05:00,
2014-01-13 23:10:00,36.7,26.8,29.83,NW,315,0.9,1.1,67,0.00,,,0.00,WUHU216HW,2014-01-14 04:10:00,
2014-01-13 23:15:00,36.7,26.8,29.83,WSW,248,2.0,2.0,67,0.00,,,0.00,WUHU216HW,2014-01-14 04:15:00,
2014-01-13 23:20:00,37.1,27.2,29.83,South,180,1.3,2.0,67,0.00,,,0.00,WUHU216HW,2014-01-14 04:20:00,
2014-01-13 23:25:00,37.3,27.3,29.83,NNW,338,0.7,1.3,67,0.00,,,0.00,WUHU216HW,2014-01-14 04:25:00,
2014-01-13 23:30:00,37.3,27.3,29.83,NNW,338,0.7,1.1,67,0.00,,,0.00,WUHU216HW,2014-01-14 04:30:00,
2014-01-13 23:35:00,37.1,27.2,29.83,NE,45,1.1,1.1,67,0.00,,,0.00,WUHU216HW,2014-01-14 04:35:00,
2014-01-13 23:40:00,37.1,27.2,29.83,ENE,68,1.8,2.0,67,0.00,,,0.00,WUHU216HW,2014-01-14 04:40:00,
2014-01-13 23:44:00,37.1,27.2,29.83,WNW,293,0.4,2.0,67,0.00,,,0.00,WUHU216HW,2014-01-14 04:44:00,
2014-01-13 23:49:00,37.3,27.3,29.83,South,180,1.1,1.1,67,0.00,,,0.00,WUHU216HW,2014-01-14 04:49:00,
2014-01-13 23:54:00,37.4,27.5,29.82,NE,36,1.0,2.7,67,0.00,,,0.00,WUHU216HW,2014-01-14 04:54:00,
2014-01-13 23:59:00,37.1,27.2,29.82,North,0,0.9,2.7,67,0.00,,,0.00,WUHU216HW,2014-01-14 04:59:00,